Mosby, MO

6:52 PM CST on December 05, 2019 (GMT -0600)
Clay County Regional

Weather History for KGPH - October, 2019

Change the Weather History Date:

Tuesday, October 29, 2019

  Actual Average (KMKC) Record (KMKC)
Temperature  
Mean Temperature 32 °F -  
Max Temperature 33 °F 60 °F 82 °F (2016)
Min Temperature 32 °F 44 °F 34 °F (2017)
Degree Days  
Heating Degree Days 32    
Moisture  
Dew Point 30 °F    
Average Humidity 88    
Maximum Humidity 93    
Minimum Humidity 81    
Precipitation  
Precipitation 0.00 in - - ()
Sea Level Pressure  
Sea Level Pressure 30.25 in    
Wind  
Wind Speed 4 mph ()    
Max Wind Speed 10 mph    
Max Gust Speed -    
Visibility 10.0 miles    
Events      
Averages and records for this station are not official NWS values.
T = Trace of Precipitation, MM = Missing Value Source: Averaged Metar Reports

Daily Weather History Graph

Daily Weather History Graph

Search for Another Location

Airport or City:

Astronomy

Oct. 29, 2019 Rise Set
Actual Time 7:41 AM CDT 6:19 PM CDT
Civil Twilight 7:13 AM CDT 6:47 PM CDT
Nautical Twilight 6:42 AM CDT 7:18 PM CDT
Astronomical Twilight 6:11 AM CDT 7:49 PM CDT
Moon 9:15 AM CDT (10/29) 7:45 PM CDT (10/29)
Length of Visible Light 11h 33m
Length of Day
10h 38m
Waxing Crescent, 3% of the Moon is Illuminated
Oct 29
Waxing Crescent
Nov 4
First Quarter
Nov 12
Full
Nov 19
Last Quarter
Nov 26
New

Hourly Weather History & Observations

Time (CDT) Temp. Windchill Dew Point Humidity Pressure Visibility Wind Dir Wind Speed Gust Speed Precip Events Conditions
12:15 AM 33.8 °F 26.4 °F 32.0 °F 93% 30.17 in 10.0 mi North 9.2 mph - N/A   Overcast
12:35 AM 33.8 °F 27.7 °F 32.0 °F 93% 30.17 in 10.0 mi North 6.9 mph - N/A   Overcast
12:55 AM 33.8 °F - 32.0 °F 93% 30.15 in 10.0 mi Calm Calm - N/A   Unknown
1:15 AM 33.8 °F 27.7 °F 32.0 °F 93% 30.17 in 10.0 mi NNW 6.9 mph - N/A   Unknown
1:35 AM 33.8 °F 27.0 °F 32.0 °F 93% 30.17 in 10.0 mi North 8.1 mph - N/A   Overcast
1:55 AM 33.8 °F 27.0 °F 32.0 °F 93% 30.17 in 10.0 mi North 8.1 mph - N/A   Overcast
2:15 AM 33.8 °F 30.8 °F 32.0 °F 93% 30.18 in 10.0 mi North 3.5 mph - N/A   Overcast
2:35 AM 33.8 °F 27.7 °F 32.0 °F 93% 30.18 in 10.0 mi North 6.9 mph - N/A   Overcast
2:55 AM 33.8 °F 28.6 °F 32.0 °F 93% 30.18 in 10.0 mi North 5.8 mph - N/A   Overcast
3:15 AM 33.8 °F - 32.0 °F 93% 30.19 in 10.0 mi Calm Calm - N/A   Overcast
3:35 AM 33.8 °F - 32.0 °F 93% 30.19 in 10.0 mi Calm Calm - N/A   Overcast
3:55 AM 33.8 °F - 32.0 °F 93% 30.21 in 10.0 mi Calm Calm - N/A   Overcast
4:15 AM 33.8 °F - 32.0 °F 93% 30.21 in 10.0 mi Calm Calm - N/A   Unknown
4:35 AM 33.8 °F - 32.0 °F 93% 30.22 in 10.0 mi Calm Calm - N/A   Overcast
4:55 AM 33.8 °F 28.6 °F 32.0 °F 93% 30.21 in 10.0 mi North 5.8 mph - N/A   Overcast
5:15 AM 33.8 °F - 32.0 °F 93% 30.21 in 10.0 mi Calm Calm - N/A   Overcast
5:35 AM 33.8 °F 30.8 °F 32.0 °F 93% 30.21 in 10.0 mi NNW 3.5 mph - N/A   Overcast
5:55 AM 33.8 °F 28.6 °F 32.0 °F 93% 30.21 in 10.0 mi NNW 5.8 mph - N/A   Overcast
6:15 AM 33.8 °F - 32.0 °F 93% 30.22 in 10.0 mi Calm Calm - N/A   Overcast
6:35 AM 33.8 °F - 30.2 °F 87% 30.24 in 10.0 mi Calm Calm - N/A   Overcast
7:15 AM 33.8 °F - 32.0 °F 93% 30.23 in 10.0 mi Calm Calm - N/A   Overcast
7:35 AM 33.8 °F 30.8 °F 32.0 °F 93% 30.24 in 10.0 mi North 3.5 mph - N/A   Overcast
7:55 AM 33.8 °F - 30.2 °F 87% 30.25 in 10.0 mi Calm Calm - N/A   Overcast
8:15 AM 33.8 °F - 30.2 °F 87% 30.26 in 10.0 mi Calm Calm - N/A   Overcast
8:35 AM 33.8 °F - 32.0 °F 93% 30.26 in 10.0 mi Calm Calm - N/A   Overcast
8:55 AM 33.8 °F 29.6 °F 32.0 °F 93% 30.27 in 10.0 mi North 4.6 mph - N/A   Overcast
9:15 AM 33.8 °F 27.7 °F 30.2 °F 87% 30.27 in 10.0 mi North 6.9 mph - N/A   Overcast
9:35 AM 33.8 °F 27.0 °F 30.2 °F 87% 30.28 in 10.0 mi North 8.1 mph - N/A   Overcast
10:15 AM 33.8 °F 25.8 °F 30.2 °F 87% 30.30 in 10.0 mi North 10.4 mph - N/A   Overcast
10:35 AM 33.8 °F 26.4 °F 30.2 °F 87% 30.30 in 10.0 mi North 9.2 mph - N/A   Overcast
10:55 AM 33.8 °F 27.0 °F 28.4 °F 81% 30.30 in 10.0 mi NNE 8.1 mph - N/A   Overcast
11:15 AM 33.8 °F 27.7 °F 28.4 °F 81% 30.30 in 10.0 mi NNE 6.9 mph - N/A   Overcast
11:35 AM 32.0 °F 26.4 °F 28.4 °F 87% 30.31 in 10.0 mi NE 5.8 mph - N/A   Overcast
11:55 AM 33.8 °F 28.6 °F 28.4 °F 81% 30.32 in 10.0 mi NNE 5.8 mph - N/A   Overcast
12:15 PM 33.8 °F 29.6 °F 28.4 °F 81% 30.32 in 10.0 mi NNE 4.6 mph - N/A   Overcast
12:35 PM 33.8 °F 29.6 °F 28.4 °F 81% 30.31 in 10.0 mi ENE 4.6 mph - N/A   Overcast
1:15 PM 33.8 °F 28.6 °F 28.4 °F 81% 30.30 in 10.0 mi East 5.8 mph - N/A   Overcast
1:35 PM 33.8 °F 27.0 °F 28.4 °F 81% 30.28 in 10.0 mi NNE 8.1 mph - N/A   Overcast
1:55 PM 33.8 °F 28.6 °F 30.2 °F 87% 30.28 in 10.0 mi NE 5.8 mph - N/A   Overcast
2:15 PM 33.8 °F 28.6 °F 28.4 °F 81% 30.28 in 10.0 mi ENE 5.8 mph - N/A   Overcast
2:35 PM 33.8 °F 30.8 °F 28.4 °F 81% 30.28 in 10.0 mi NE 3.5 mph - N/A   Overcast
2:55 PM 33.8 °F - 28.4 °F 81% 30.28 in 10.0 mi Calm Calm - N/A   Overcast
3:15 PM 33.8 °F - 28.4 °F 81% 30.26 in 10.0 mi Calm Calm - N/A   Overcast
3:35 PM 33.8 °F 27.7 °F 30.2 °F 87% 30.26 in 10.0 mi NE 6.9 mph - N/A   Overcast
3:55 PM 33.8 °F 27.0 °F 30.2 °F 87% 30.25 in 10.0 mi NE 8.1 mph - N/A   Overcast
4:15 PM 33.8 °F 27.7 °F 30.2 °F 87% 30.27 in 10.0 mi NNE 6.9 mph - N/A   Overcast
4:35 PM 33.8 °F 29.6 °F 30.2 °F 87% 30.28 in 10.0 mi NE 4.6 mph - N/A   Overcast
4:55 PM 33.8 °F 28.6 °F 30.2 °F 87% 30.27 in 10.0 mi NE 5.8 mph - N/A   Overcast
5:15 PM 33.8 °F 29.6 °F 30.2 °F 87% 30.27 in 10.0 mi NE 4.6 mph - N/A   Overcast
5:35 PM 33.8 °F 27.7 °F 30.2 °F 87% 30.26 in 10.0 mi NNE 6.9 mph - N/A   Overcast
5:55 PM 33.8 °F 27.7 °F 30.2 °F 87% 30.27 in 10.0 mi NNE 6.9 mph - N/A   Overcast
6:15 PM 33.8 °F 27.7 °F 30.2 °F 87% 30.27 in 10.0 mi NNE 6.9 mph - N/A   Unknown
6:35 PM 33.8 °F 28.6 °F 30.2 °F 87% 30.27 in 10.0 mi NNE 5.8 mph - N/A   Overcast
6:55 PM 33.8 °F 26.4 °F 30.2 °F 87% 30.27 in 10.0 mi NE 9.2 mph - N/A   Overcast
7:35 PM 33.8 °F 27.7 °F 30.2 °F 87% 30.28 in 10.0 mi NNE 6.9 mph - N/A   Overcast
7:55 PM 33.8 °F 29.6 °F 30.2 °F 87% 30.27 in 10.0 mi NNE 4.6 mph - N/A   Overcast
8:15 PM 33.8 °F - 30.2 °F 87% 30.29 in 10.0 mi Calm Calm - N/A   Overcast
8:35 PM 33.8 °F 27.7 °F 30.2 °F 87% 30.27 in 10.0 mi NNE 6.9 mph - N/A   Overcast
8:55 PM 33.8 °F - 30.2 °F 87% 30.28 in 10.0 mi Calm Calm - N/A   Overcast
9:35 PM 33.8 °F - 30.2 °F 87% 30.29 in 10.0 mi Calm Calm - N/A   Overcast
9:55 PM 33.8 °F 28.6 °F 30.2 °F 87% 30.29 in 10.0 mi NE 5.8 mph - N/A   Overcast
10:15 PM 33.8 °F - 30.2 °F 87% 30.30 in 10.0 mi Calm Calm - N/A   Overcast
10:35 PM 33.8 °F - 30.2 °F 87% 30.30 in 10.0 mi Calm Calm - N/A   Overcast
10:55 PM 33.8 °F 29.6 °F 30.2 °F 87% 30.29 in 10.0 mi NNE 4.6 mph - N/A   Overcast
11:15 PM 33.8 °F 29.6 °F 30.2 °F 87% 30.30 in 10.0 mi NE 4.6 mph - N/A   Overcast
11:35 PM 33.8 °F 27.7 °F 30.2 °F 87% 30.30 in 10.0 mi NNE 6.9 mph - N/A   Overcast
11:55 PM 33.8 °F - 30.2 °F 87% 30.30 in 10.0 mi Calm Calm - N/A   Overcast